Regional Weather Roundup
Issued by NWS Cleveland, OH

Home | Current Version | Previous Version | Graphics & Text | Print | Product List | Glossary On
Versions: 1 2 3 4 5 6 7 8 9 10 11 12 13 14 15 16 17 18 19 20 21 22 23 24 25 26 27 28 29 30 31 32 33 34 35 36 37 38 39 40 41 42 43 44 45 46 47 48 49 50
016
ASUS41 KCLE 121900
RWRCLE
OHIO REGIONAL WEATHER ROUNDUP
NATIONAL WEATHER SERVICE WILMINGTON, OH
200 PM EST FRI FEB 12 2016

NOTE: "FAIR" INDICATES FEW OR NO CLOUDS BELOW 12,000 FEET WITH NO
SIGNIFICANT WEATHER AND/OR OBSTRUCTIONS TO VISIBILITY.

OHZ001>008-015>018-024>027-034-035-043-044-122000-
   NORTHWEST OHIO

CITY           SKY/WX    TMP DP  RH WIND       PRES   REMARKS
DEFIANCE       CLOUDY    24  11  57 W13G24    30.02F WCI  12
FINDLAY        CLOUDY    25  11  55 W24       30.00F WCI   9
TOLEDO EXPRESS CLOUDY    23  13  65 W20G31    29.99F WCI   8
TOLEDO EXEC      N/A    N/A N/A N/A MISG      30.00F
LIMA           CLOUDY    24  12  60 W18G29    30.02F WCI  10
$$

OHZ009>014-019>023-028>033-038-089-122000-
   NORTHEAST OHIO

CITY           SKY/WX    TMP DP  RH WIND       PRES   REMARKS
CLE-HOPKINS    CLOUDY    22   8  55 SW14      30.00F WCI   9
CLE-LAKEFRONT  CLOUDY    24   9  52 SW20      29.98F WCI  10
CUY CO. ARPT   CLOUDY    23  10  58 SW14G25   29.97F WCI  11
LORAIN-ELYRIA  CLOUDY    22   8  55 W22       29.99F WCI   6
ASHTABULA      CLOUDY    21   8  57 SW16      29.96F WCI   7
AKRON-CANTON   CLOUDY    20   9  62 SW15      29.98F WCI   6
WOOSTER        NOT AVBL
MANSFIELD      CLOUDY    21   8  57 SW13      29.97F WCI   9
YOUNGSTOWN     LGT SNOW  20   9  62 SW17G25   29.96F WCI   5
$$

OHZ042-051>053-060>062-070>072-077>081-122000-
  SOUTHWEST OHIO

CITY           SKY/WX    TMP DP  RH WIND       PRES   REMARKS
CINC-COVINGTON FLURRIES  27  17  66 W14       30.09F WCI  16
CINC-LUNKEN    CLOUDY    28  19  69 W7        30.13F WCI  21
HAMILTON       CLOUDY    29  15  56 W10       30.11F WCI  20
DAYTON         NOT AVBL
WRIGHT-PAT AFB CLOUDY    26  11  53 W12G20    30.06F WCI  15
DAYTON GENERAL CLOUDY    25  13  60 W10G20    30.06F WCI  15
WILMINGTON     LGT SNOW  24  16  71 W13       30.05F WCI  12
$$

OHZ036-037-039>041-045>050-054>059-063>069-073>076-082>088-122000-
  CENTRAL AND SOUTHEAST OHIO

CITY           SKY/WX    TMP DP  RH WIND       PRES   REMARKS
COLUMBUS       FLURRIES  23   9  55 W10       30.05F WCI  12
OSU AIRPORT    CLOUDY    23  11  60 W12G23    30.04F WCI  12
BOLTON FIELD   CLOUDY    25  10  54 W14       30.05F WCI  13
RICKENBACK AFB NOT AVBL
NEWARK         CLOUDY    24   9  52 W13       30.03F WCI  12
MARION         CLOUDY    23   6  48 W17G24    30.01F WCI   9
LANCASTER      CLOUDY    23  11  60 W13       30.06F WCI  11
ZANESVILLE     CLOUDY    26   6  42 W13       30.03F WCI  15
NEW PHILLY     CLOUDY    22   9  57 SW10      30.03F WCI  11
$$




USA.gov is the U.S. government's official web portal to all federal, state and local government web resources and services.